Temperature
20 18 18 18 17 17 18 17 17 17 17 17 17 17 17 17 17 17 17 17 16 16 16 16 16 16 16 16 16 16 16 16 16 17 17 17 17 16 16 16 16 16 16
20 18 17 17 17 17 17 17 17 17 17 17 17 17 17 17 17 17 17 16 16 16 16 16 16 16 16 15 15 15 16 16 16 17 17 18 17 16 17 16 16 16 16
20 18 18 17 17 17 17 17 17 17 17 17 17 17 17 17 17 16 17 16 16 16 16 16 16 15 15 15 15 15 15 16 16 16 17 18 19 18 17 16 16 16 16
20 18 18 17 17 17 17 17 17 17 17 17 17 17 17 17 17 17 16 16 16 16 15 15 15 15 15 15 15 15 15 15 16 16 16 16 17 18 18 17 17 16 16
20 19 18 17 17 17 16 16 17 17 17 17 17 17 17 16 17 16 16 16 16 16 15 15 15 15 15 15 15 15 15 15 16 16 16 16 16 17 18 18 18 17 17
20 18 18 17 17 16 16 16 16 16 16 17 17 17 16 16 16 16 16 16 16 15 15 15 15 15 15 14 14 15 15 15 15 16 16 16 17 17 18 18 17 18 17
20 19 18 17 17 17 16 16 16 16 16 16 16 17 16 17 16 16 16 16 16 15 15 15 15 15 15 14 14 15 15 15 15 15 16 16 16 17 17 17 18 17 17
20 19 18 17 17 17 16 16 16 16 16 16 16 16 16 16 16 16 16 16 16 16 15 15 15 15 15 14 15 15 14 14 15 15 15 15 16 16 16 17 17 18 18
21 19 18 17 17 17 16 16 16 16 16 16 16 16 16 16 16 16 16 16 16 15 15 15 15 15 15 15 15 14 14 14 14 15 15 15 15 15 16 16 16 17 18
21 19 18 18 17 17 16 16 16 16 16 16 16 16 16 16 16 16 16 16 16 15 15 15 15 15 15 15 15 14 14 14 14 14 14 14 15 15 15 15 15 16 16
21 20 19 18 17 17 16 16 16 16 16 16 16 16 16 16 16 16 16 16 16 16 16 15 15 15 15 15 15 14 14 14 14 14 14 14 14 15 15 15 15 15 15
21 20 19 18 17 17 17 16 16 16 16 16 16 16 16 16 16 16 16 16 16 16 16 15 15 15 15 15 15 15 14 14 14 14 14 14 14 14 15 15 15 15 15
21 20 19 18 18 17 17 17 16 16 16 16 16 16 16 16 16 16 16 16 16 16 16 15 15 15 15 15 15 15 15 15 14 14 14 14 14 14 14 14 15 15 15
20 20 19 18 17 17 17 17 16 16 16 16 16 16 16 16 16 16 16 16 16 16 15 15 15 15 15 15 15 15 15 15 14 14 14 14 14 14 14 14 14 14 14
20 19 18 18 17 17 17 17 17 16 16 16 16 16 16 16 16 16 16 16 16 15 15 15 15 15 15 15 15 15 15 15 15 14 14 14 14 14 14 14 14 14 14
20 19 18 17 17 17 17 17 16 16 16 16 16 16 16 16 16 16 16 15 15 15 15 15 15 15 15 15 15 15 15 14 14 14 14 14 14 14 14 13 13 13 13
20 19 18 17 17 17 16 16 16 16 16 16 16 16 16 15 15 15 15 15 15 15 15 15 15 15 15 15 15 15 14 14 14 13 13 13 13 13 13 13 13 12 12
19 18 17 17 16 16 16 16 16 16 16 15 16 15 15 15 15 15 15 15 14 14 14 14 14 14 14 14 14 13 13 13 13 12 12 12 12 12 12 11 11 11 11
17 17 16 16 16 16 16 16 16 15 15 15 15 15 15 15 15 14 14 14 14 14 13 13 13 13 13 12 12 12 12 12 11 11 11 11 11 11 11 10 10 10 9
16 16 16 16 15 15 15 15 15 15 14 14 14 14 14 14 14 14 13 13 13 13 12 12 12 12 12 11 11 11 11 10 10 10 10 10 10 10 10 9 9 9 8
14 14 15 15 14 14 14 14 14 14 14 14 14 14 13 13 13 13 12 12 12 12 11 11 11 11 11 10 10 10 10 10 9 9 9 8 8 8 8 8 8 8 8
13 13 13 13 13 13 14 13 13 13 13 13 13 13 12 12 12 12 12 11 11 11 10 10 10 10 9 9 9 9 9 9 8 8 7 7 7 7 7 7 7 7 7
12 12 12 12 12 12 13 13 12 12 12 12 12 12 12 11 11 11 11 10 10 10 10 9 9 8 8 8 8 8 8 8 7 7 7 7 7 7 6 6 6 6 5
11 11 11 11 11 11 11 11 11 11 11 11 11 11 11 10 10 10 10 10 10 10 9 9 9 8 8 7 7 7 6 6 6 6 6 6 6 5 5 5 5 4 4
11 11 11 11 10 10 10 10 10 10 11 10 10 10 10 10 10 9 9 9 9 9 8 8 8 7 7 7 6 6 6 6 5 5 5 5 5 5 5 4 4 4 3
10 10 10 10 10 10 10 10 10 10 10 10 10 10 9 9 9 9 8 8 8 8 7 7 7 6 6 6 6 5 5 5 5 5 5 5 4 4 4 3 3 3 3
Wind_Speed
10 10 11 11 12 12 13 13 14 14 12 10 9 8 8 7 6 6 6 6 6 6 5 4 4 4 4 4 5 4 5 4 3 4 4 4 4 4 4 4 4 5 5
10 11 12 12 13 13 14 13 13 14 13 10 8 7 7 7 6 5 6 6 6 6 6 4 5 4 3 4 4 4 4 4 4 4 4 4 5 5 4 4 4 4 5
10 11 12 13 13 13 13 13 13 13 13 12 9 8 7 6 6 7 6 6 6 6 4 5 4 4 5 5 5 5 6 4 4 4 3 3 3 4 5 4 4 4 3
9 10 10 12 12 13 13 13 13 13 12 13 12 13 10 9 8 7 6 7 7 6 6 5 4 4 4 3 5 4 4 5 5 4 3 3 3 2 3 5 5 5 4
8 9 9 10 10 11 12 12 13 12 12 12 13 12 10 8 8 7 8 7 7 6 6 6 5 4 3 3 2 3 4 5 5 4 4 3 3 4 4 2 3 5 5
8 8 8 8 8 10 11 11 12 12 13 13 12 12 12 10 10 10 9 8 7 6 7 6 5 5 3 4 3 3 4 3 3 3 4 4 4 4 3 3 4 3 3
8 9 9 9 9 10 11 12 12 12 12 12 12 12 12 11 11 10 10 8 7 7 7 6 5 4 4 4 3 3 2 3 3 4 3 3 3 3 3 4 3 3 3
9 9 10 10 10 11 11 12 12 12 12 12 11 11 11 9 8 9 8 9 7 6 7 7 6 5 5 5 4 4 4 3 3 3 2 3 3 3 3 4 4 5 4
9 10 10 10 11 11 11 12 12 12 12 11 11 10 11 9 8 8 8 7 6 6 8 7 7 7 6 5 5 4 4 4 4 4 5 5 3 3 3 3 4 5 5
10 10 10 11 11 11 11 11 12 12 12 12 11 10 10 10 9 8 8 7 7 6 8 8 8 8 7 7 6 5 5 5 4 3 3 4 5 4 4 4 4 5 6
10 11 11 12 13 12 13 12 12 11 11 11 11 10 10 10 9 8 8 8 8 8 9 9 8 8 8 8 7 7 6 7 6 6 6 6 5 5 5 5 5 5 6
11 11 12 13 13 13 13 13 13 12 11 11 11 10 9 9 9 9 9 8 9 9 9 9 9 8 8 8 9 9 8 8 8 8 7 7 6 7 7 6 7 6 6
11 12 12 13 13 14 13 13 13 12 12 11 11 10 10 10 9 8 8 9 8 8 8 8 8 8 8 8 9 9 8 8 8 8 8 8 7 8 7 7 7 7 7
12 12 12 12 13 13 13 13 12 12 12 12 11 10 10 9 8 8 8 8 8 7 7 7 7 7 7 7 8 8 8 8 7 7 6 6 6 6 6 6 6 7 7
13 13 13 12 13 13 13 12 12 12 11 11 11 10 9 9 8 7 6 6 6 6 5 5 4 4 4 4 6 6 7 6 5 4 3 2 1 3 3 4 4 5 6
14 14 13 13 13 13 13 13 12 12 12 11 10 9 9 8 7 7 6 5 4 3 3 3 2 1 1 4 3 2 2 2 2 1 1 1 2 3 2 3 4 4 5
12 13 13 12 12 12 12 12 12 12 12 11 10 9 8 7 7 7 6 6 5 5 4 4 4 5 6 7 5 3 2 3 3 2 2 1 3 2 1 0 1 1 2
10 10 10 10 10 10 11 11 11 11 11 10 9 9 8 8 7 7 7 7 6 6 6 6 7 7 8 8 7 5 5 5 5 4 3 3 3 4 3 2 1 2 2
8 8 9 10 10 11 12 12 12 11 11 10 9 8 8 9 9 9 8 8 8 8 8 8 9 9 9 11 9 5 4 5 5 4 4 3 3 6 7 3 3 4 4
7 8 9 10 11 11 12 13 13 12 11 10 9 9 9 10 10 10 9 8 9 9 9 10 10 10 10 11 11 7 3 4 3 3 4 8 7 7 7 5 5 6 6
10 11 11 11 11 11 13 13 13 12 11 11 11 11 11 11 12 11 10 9 10 10 10 10 10 10 10 11 13 11 5 4 3 3 3 5 7 6 6 6 5 5 8
12 13 13 13 12 12 14 14 13 12 12 13 13 13 11 11 11 11 10 10 10 10 10 9 8 7 8 9 10 11 10 7 4 3 3 4 5 4 5 5 5 7 9
13 14 15 15 14 13 14 15 13 12 13 14 14 13 12 11 11 11 10 9 7 6 6 6 6 6 5 6 7 6 6 6 4 4 4 2 3 6 5 4 6 8 7
14 14 16 17 15 14 15 14 12 12 14 14 13 12 12 12 10 8 7 6 6 5 5 4 4 4 4 5 4 3 2 1 2 3 2 8 9 7 5 5 5 6 6
14 14 15 16 16 14 14 13 12 12 14 13 12 11 11 11 10 10 10 8 10 8 5 5 4 4 5 8 10 8 6 7 6 8 6 5 5 6 6 6 6 7 7
14 15 16 16 15 14 14 12 11 11 11 11 9 9 8 8 8 9 10 16 13 15 16 15 11 10 10 6 6 6 6 6 9 9 6 6 6 7 8 8 8 8 8
Wind_Direction
192 184 187 188 185 184 180 183 184 180 176 175 173 170 174 172 176 177 172 182 186 182 203 197 177 212 201 205 198 196 185 199 193 202 187 181 187 185 185 199 205 191 199
192 187 190 193 194 189 185 182 184 182 181 177 173 173 168 172 170 171 168 182 183 185 192 198 196 196 189 196 202 215 223 192 207 234 212 197 181 196 189 191 202 205 198
197 193 195 198 195 191 186 185 185 185 181 171 162 159 156 162 168 174 175 180 182 187 195 193 210 193 212 194 205 209 221 214 202 234 253 242 213 166 172 193 195 202 209
195 193 193 191 190 190 186 182 179 180 175 170 173 173 177 178 176 175 169 172 180 184 184 187 191 203 212 183 207 204 224 228 212 196 245 303 348 268 178 188 183 192 211
190 189 190 188 186 183 179 176 175 174 175 178 178 180 182 176 166 165 162 177 173 181 180 179 181 190 201 188 209 187 231 222 232 215 206 213 227 258 269 212 184 193 198
179 178 179 176 172 170 170 170 171 171 174 178 180 185 180 172 165 171 171 182 174 178 176 178 179 190 183 175 193 202 203 234 240 248 230 226 233 236 249 250 231 216 192
173 171 172 172 169 167 167 167 169 170 173 177 183 184 179 175 176 180 182 185 178 176 173 177 179 182 177 183 188 198 203 201 204 230 236 242 256 274 269 270 262 248 212
171 169 169 171 171 168 166 167 170 170 172 176 180 179 177 179 180 186 185 188 187 177 167 178 184 187 189 191 190 203 194 194 210 224 247 249 240 250 258 269 273 255 233
166 165 167 169 167 166 167 169 169 169 172 174 171 173 179 180 176 179 190 185 180 174 177 186 191 194 197 200 201 206 199 196 218 211 206 234 221 235 251 260 270 278 274
166 162 165 165 163 164 163 166 168 170 172 173 172 171 176 177 178 183 187 185 184 186 187 194 199 200 200 202 210 208 199 210 219 239 242 246 243 232 241 249 252 261 274
167 163 164 164 163 163 162 163 164 166 172 173 174 172 175 177 180 186 190 189 192 194 200 203 206 207 207 207 211 225 209 218 220 222 223 230 256 250 245 241 246 247 255
165 161 161 164 165 166 165 164 166 168 170 171 173 176 174 176 183 187 192 194 197 203 206 209 211 214 214 213 216 223 221 223 226 226 229 233 229 232 251 252 250 252 257
165 161 160 165 167 169 170 169 171 170 170 170 173 175 177 181 188 190 195 198 202 208 210 212 216 219 221 219 222 224 226 228 231 231 231 235 237 237 242 245 253 254 249
167 166 164 167 168 169 170 171 172 170 169 170 173 177 180 181 185 188 194 198 204 207 210 213 217 219 223 224 226 227 228 230 233 236 237 239 240 244 249 248 254 263 267
171 171 170 168 169 170 171 171 171 170 169 170 174 175 173 173 177 179 185 193 202 207 204 206 212 217 224 234 234 235 231 226 226 223 225 229 59 24 330 292 283 277 271
174 172 171 171 172 172 172 171 171 169 168 170 170 169 167 168 169 170 174 175 175 176 167 163 154 128 20 44 30 265 235 201 194 184 157 122 84 69 58 15 2 340 294
172 170 170 171 172 173 171 168 165 163 163 163 162 159 160 162 160 159 153 146 136 119 105 99 97 83 58 60 71 77 109 106 103 106 100 87 62 46 18 104 211 343 5
165 163 162 159 158 159 158 155 152 153 153 151 147 143 147 144 138 132 121 112 106 102 99 95 90 85 65 59 68 77 98 90 85 83 84 82 53 29 359 335 330 303 295
147 147 151 149 148 148 146 142 140 139 137 134 131 130 132 127 120 111 107 105 106 105 101 95 90 84 65 50 50 46 96 92 87 79 69 66 66 34 357 333 321 308 299
123 129 129 127 130 135 136 132 130 127 124 121 118 115 114 114 110 106 106 106 107 105 101 92 85 82 73 53 41 17 74 84 86 91 91 66 48 33 360 335 323 313 317
111 113 113 112 112 118 121 117 115 114 114 112 107 104 104 106 106 105 106 109 107 103 99 95 89 82 74 65 46 26 39 39 35 35 39 63 54 25 354 323 324 331 313
103 104 102 100 99 105 108 106 103 106 108 106 102 101 101 103 105 105 104 105 110 111 107 104 98 90 81 66 59 49 42 15 31 18 20 45 33 343 315 318 343 312 294
100 101 101 97 94 96 101 102 101 104 104 102 101 100 99 98 103 106 108 109 110 108 109 108 103 97 90 91 88 79 61 24 18 28 54 353 285 285 270 220 262 285 296
102 103 101 97 93 92 93 97 102 106 106 104 103 103 101 99 93 92 94 93 90 95 99 95 93 96 83 53 34 30 42 105 346 348 249 220 233 252 284 293 281 301 319
102 101 100 99 97 96 97 99 103 105 105 104 105 104 100 96 88 74 55 63 57 47 49 64 64 54 68 46 24 11 11 359 358 326 308 315 328 325 330 329 330 325 322
104 102 100 99 98 97 95 95 97 101 106 109 110 108 108 107 108 105 88 58 65 66 59 50 53 69 69 66 44 31 14 344 321 309 327 340 338 334 334 330 327 326 326
Height
1497 1499 1500 1502 1505 1507 1511 1514 1519 1523 1527 1531 1535 1539 1543 1546 1549 1552 1553 1555 1557 1558 1559 1562 1562 1563 1565 1566 1567 1568 1569 1570 1571 1573 1574 1574 1575 1576 1576 1578 1578 1579 1579
1495 1497 1498 1499 1501 1504 1508 1511 1515 1520 1524 1528 1533 1537 1541 1545 1548 1550 1552 1554 1555 1557 1559 1560 1562 1563 1563 1564 1566 1567 1569 1570 1571 1572 1573 1574 1575 1575 1576 1576 1577 1578 1578
1492 1494 1495 1497 1499 1502 1505 1508 1512 1516 1521 1526 1531 1535 1539 1542 1546 1548 1550 1552 1554 1556 1558 1559 1561 1561 1563 1564 1564 1566 1567 1569 1570 1571 1572 1572 1572 1574 1575 1575 1576 1577 1577
1490 1491 1493 1494 1496 1499 1502 1506 1509 1514 1518 1523 1528 1533 1537 1540 1544 1547 1549 1551 1553 1555 1556 1557 1559 1560 1562 1562 1564 1565 1566 1567 1569 1570 1570 1572 1572 1573 1573 1575 1575 1576 1576
1488 1489 1491 1492 1495 1497 1500 1503 1507 1511 1516 1521 1526 1531 1535 1539 1542 1545 1547 1550 1552 1553 1555 1556 1557 1558 1561 1561 1562 1563 1565 1566 1568 1569 1570 1571 1572 1572 1573 1573 1574 1575 1575
1486 1488 1490 1491 1493 1495 1498 1501 1505 1509 1514 1519 1524 1528 1533 1537 1540 1543 1546 1549 1551 1552 1553 1555 1556 1558 1560 1560 1561 1562 1563 1565 1566 1568 1569 1570 1571 1571 1572 1572 1573 1573 1574
1485 1487 1489 1490 1492 1494 1497 1500 1504 1508 1512 1517 1522 1526 1530 1535 1538 1542 1545 1548 1550 1552 1552 1555 1555 1557 1558 1559 1560 1561 1562 1563 1564 1566 1568 1569 1570 1570 1571 1571 1572 1572 1572
1484 1486 1487 1489 1491 1494 1496 1500 1503 1507 1511 1516 1520 1525 1529 1533 1537 1540 1543 1546 1549 1551 1552 1553 1554 1556 1557 1558 1559 1561 1561 1562 1563 1564 1565 1567 1568 1569 1570 1571 1571 1570 1570
1483 1485 1487 1489 1491 1493 1496 1499 1502 1506 1510 1515 1519 1523 1527 1531 1535 1539 1542 1545 1547 1549 1550 1552 1553 1555 1556 1557 1558 1560 1560 1560 1562 1563 1564 1565 1566 1567 1567 1568 1569 1570 1568
1482 1484 1486 1488 1491 1493 1496 1499 1502 1506 1510 1514 1518 1523 1527 1530 1534 1537 1540 1543 1545 1547 1549 1550 1552 1553 1554 1555 1556 1558 1558 1559 1560 1561 1562 1562 1564 1565 1565 1566 1566 1567 1568
1480 1483 1486 1488 1491 1493 1496 1499 1502 1506 1509 1514 1518 1522 1526 1529 1533 1536 1539 1541 1543 1545 1547 1549 1550 1552 1553 1554 1555 1556 1557 1557 1558 1559 1560 1560 1561 1562 1563 1564 1564 1564 1565
1479 1482 1484 1487 1490 1493 1496 1499 1502 1505 1509 1513 1517 1520 1524 1528 1531 1534 1537 1539 1541 1543 1545 1547 1549 1550 1551 1552 1553 1554 1555 1555 1556 1557 1557 1558 1559 1559 1560 1561 1561 1561 1561
1478 1481 1484 1486 1489 1493 1496 1499 1502 1506 1509 1512 1516 1519 1523 1526 1529 1533 1535 1537 1539 1541 1543 1545 1546 1548 1549 1550 1550 1551 1552 1553 1553 1554 1554 1555 1555 1555 1557 1556 1558 1558 1558
1477 1480 1483 1486 1489 1492 1495 1498 1502 1505 1508 1511 1515 1518 1521 1524 1527 1530 1533 1535 1537 1539 1541 1542 1544 1545 1546 1547 1548 1548 1549 1549 1550 1550 1551 1551 1552 1552 1553 1553 1553 1553 1553
1475 1478 1481 1484 1487 1490 1494 1497 1501 1504 1507 1510 1514 1517 1520 1523 1525 1528 1530 1533 1535 1537 1538 1540 1541 1542 1543 1544 1544 1545 1546 1546 1547 1547 1547 1547 1548 1548 1548 1549 1549 1549 1549
1473 1476 1479 1482 1485 1488 1492 1495 1499 1502 1505 1509 1512 1515 1518 1521 1523 1525 1528 1530 1532 1534 1536 1537 1538 1539 1540 1540 1541 1541 1542 1542 1543 1543 1543 1543 1543 1543 1543 1544 1544 1544 1544
1471 1474 1477 1480 1483 1487 1490 1493 1497 1500 1504 1507 1510 1513 1516 1519 1521 1523 1525 1527 1529 1531 1532 1534 1535 1535 1536 1536 1537 1537 1538 1538 1539 1539 1539 1540 1540 1539 1539 1539 1539 1538 1538
1469 1472 1475 1478 1481 1485 1488 1492 1495 1498 1502 1505 1508 1511 1514 1517 1519 1521 1523 1525 1527 1528 1530 1531 1532 1532 1533 1534 1534 1535 1535 1536 1536 1536 1536 1536 1536 1536 1536 1535 1535 1534 1533
1468 1471 1474 1477 1480 1483 1486 1490 1493 1497 1501 1504 1506 1509 1512 1515 1517 1519 1521 1523 1525 1527 1528 1529 1530 1531 1531 1532 1533 1533 1534 1534 1534 1534 1534 1533 1533 1533 1532 1532 1531 1530 1529
1468 1470 1473 1476 1479 1483 1486 1489 1493 1497 1500 1503 1506 1509 1511 1513 1516 1518 1520 1523 1524 1526 1528 1529 1530 1530 1531 1531 1532 1532 1534 1533 1533 1532 1532 1531 1530 1529 1529 1528 1527 1527 1525
1469 1471 1474 1477 1480 1483 1487 1490 1493 1497 1500 1503 1506 1509 1512 1513 1516 1518 1521 1523 1524 1526 1528 1529 1530 1530 1530 1531 1531 1532 1532 1532 1532 1532 1531 1529 1527 1526 1525 1524 1523 1521 1520
1471 1473 1475 1478 1481 1485 1488 1491 1494 1498 1501 1504 1507 1510 1512 1515 1517 1519 1522 1524 1526 1527 1528 1529 1530 1531 1531 1531 1531 1531 1531 1531 1530 1530 1529 1527 1525 1523 1522 1520 1519 1517 1515
1474 1476 1478 1480 1484 1488 1491 1493 1497 1500 1503 1506 1509 1512 1514 1517 1519 1522 1524 1525 1527 1530 1531 1531 1532 1532 1532 1531 1530 1530 1529 1529 1528 1527 1525 1523 1522 1520 1519 1517 1515 1513 1512
1478 1481 1483 1484 1488 1492 1494 1497 1500 1503 1506 1509 1512 1515 1517 1519 1521 1524 1526 1528 1529 1531 1531 1532 1533 1533 1532 1532 1530 1530 1529 1527 1527 1525 1523 1521 1519 1518 1516 1515 1513 1512 1510
1482 1485 1487 1489 1492 1496 1499 1502 1505 1508 1510 1512 1516 1518 1520 1522 1523 1525 1526 1528 1529 1530 1531 1532 1532 1532 1531 1529 1529 1528 1527 1525 1524 1522 1522 1521 1519 1517 1515 1513 1511 1509 1506
1486 1489 1492 1494 1497 1501 1504 1507 1509 1512 1513 1516 1519 1521 1523 1524 1526 1527 1528 1528 1529 1530 1530 1530 1530 1529 1529 1528 1527 1526 1524 1522 1521 1520 1521 1519 1517 1515 1513 1511 1508 1506 1503